Sigfox identifier Datetime Temperature Humidity SNR
002EE994 2019-04-23 15:06:22 16.7 32 26.1
002EE994 2019-04-23 14:34:39 16.7 32 25.9
002EE994 2019-04-23 14:02:55 16.5 32 26
002EE994 2019-04-23 13:31:12 16.4 31 25.9
002EE994 2019-04-23 12:59:29 16.3 32 25.8
002EE994 2019-04-23 12:27:46 16.1 31 25.8
002EE994 2019-04-23 11:56:03 16.1 31 25.9
002EE994 2019-04-23 11:24:20 16 31 25.8
002EE994 2019-04-23 10:52:37 15.9 31 25.9
002EE994 2019-04-23 10:20:55 15.9 31 25.8
002EE994 2019-04-23 09:49:13 15.9 31 25.7
002EE994 2019-04-23 09:17:30 15.9 31 25.7
002EE994 2019-04-23 08:45:48 15.7 31 25.7
002EE994 2019-04-23 08:14:06 15.8 31 25.8
002EE994 2019-04-23 07:42:25 15.8 31 25.8
002EE994 2019-04-23 07:10:44 15.9 31 25.9
002EE994 2019-04-23 06:39:01 15.7 31 25.9
002EE994 2019-04-23 06:07:20 15.7 31 25.7
002EE994 2019-04-23 05:35:39 15.7 31 25.7
002EE994 2019-04-23 05:03:58 15.7 31 25.7
002EE994 2019-04-23 04:32:16 15.7 31 25.8
002EE994 2019-04-23 04:00:35 15.7 31 25.8
002EE994 2019-04-23 03:28:53 15.7 31 25.8
002EE994 2019-04-23 02:57:12 15.7 31 25.8
002EE994 2019-04-23 02:25:31 15.7 31 25.7
002EE994 2019-04-23 01:53:49 15.7 31 25.7
002EE994 2019-04-23 01:22:07 15.7 31 25.7
002EE994 2019-04-23 00:50:25 15.7 31 25.7
002EE994 2019-04-23 00:18:43 15.7 31 25.8
002EE994 2019-04-22 23:47:01 15.7 31 25.8
002EE994 2019-04-22 23:15:19 15.7 31 25.8
002EE994 2019-04-22 22:43:39 15.7 31 25.8
002EE994 2019-04-22 22:11:57 15.9 31 25.7
002EE994 2019-04-22 21:40:15 15.9 31 25.6
002EE994 2019-04-22 21:08:33 15.9 31 25.6
002EE994 2019-04-22 20:36:52 15.9 31 25.5
002EE994 2019-04-22 20:05:10 15.9 31 25.6
002EE994 2019-04-22 19:33:26 16.1 31 25.6
002EE994 2019-04-22 19:01:44 16.1 31 25.7
002EE994 2019-04-22 18:30:02 16.1 31 25.6
002EE994 2019-04-22 17:58:20 16.3 31 25.5
002EE994 2019-04-22 17:26:37 16.2 31 25.5
002EE994 2019-04-22 16:54:54 16.1 31 25.5
002EE994 2019-04-22 16:23:12 16.1 31 25.7
002EE994 2019-04-22 15:51:30 16.1 31 25.7
002EE994 2019-04-22 15:19:47 16.1 31 25.5
002EE994 2019-04-22 14:48:05 16.1 31 25.5
002EE994 2019-04-22 14:16:24 16 30 25.4
002EE994 2019-04-22 13:44:42 15.9 30 25.4
002EE994 2019-04-22 13:13:00 15.9 30 25.5
002EE994 2019-04-22 12:41:17 15.9 30 25.4
002EE994 2019-04-22 12:09:34 15.9 30 25.4
002EE994 2019-04-22 11:37:52 15.9 30 25.3
002EE994 2019-04-22 11:06:09 15.9 30 25.3
002EE994 2019-04-22 10:34:27 16 30 25.3
002EE994 2019-04-22 10:02:45 15.7 30 25.2
002EE994 2019-04-22 09:31:03 15.7 30 25.3
002EE994 2019-04-22 08:59:20 15.7 30 25.4
002EE994 2019-04-22 08:27:37 15.7 30 25.4
002EE994 2019-04-22 07:55:54 15.7 30 25.4
002EE994 2019-04-22 07:24:11 15.8 30 25.4
002EE994 2019-04-22 06:52:29 15.9 30 25.5
002EE994 2019-04-22 06:20:47 15.9 30 25.5
002EE994 2019-04-22 05:49:04 15.9 30 25.4
002EE994 2019-04-22 05:17:22 15.9 30 25.4
002EE994 2019-04-22 04:45:39 15.7 30 25.5
002EE994 2019-04-22 04:13:57 15.9 30 25.6
002EE994 2019-04-22 03:42:15 15.7 30 25.8
002EE994 2019-04-22 03:10:32 15.7 30 25.7
002EE994 2019-04-22 02:38:49 15.9 30 25.7
002EE994 2019-04-22 02:07:06 15.7 30 25.8
002EE994 2019-04-22 01:35:25 15.7 30 25.7
002EE994 2019-04-22 01:03:44 15.7 30 25.8
002EE994 2019-04-22 00:32:01 15.7 30 25.8
002EE994 2019-04-22 00:00:19 15.7 30 25.8
002EE994 2019-04-21 23:28:37 15.5 30 25.8
002EE994 2019-04-21 22:56:54 15.6 30 25.9
002EE994 2019-04-21 22:25:12 15.6 30 25.9
002EE994 2019-04-21 21:53:30 15.6 30 26
002EE994 2019-04-21 21:21:48 15.7 30 26
002EE994 2019-04-21 20:50:07 15.7 30 26
002EE994 2019-04-21 20:18:27 15.6 30 26
002EE994 2019-04-21 19:46:45 15.6 30 26
002EE994 2019-04-21 19:15:04 15.6 30 26.1
002EE994 2019-04-21 18:43:22 15.7 30 26.1
002EE994 2019-04-21 18:11:40 15.6 30 26.1
002EE994 2019-04-21 17:39:59 15.6 30 26.1
002EE994 2019-04-21 17:08:18 15.6 30 26
002EE994 2019-04-21 16:36:37 15.5 30 26.1
002EE994 2019-04-21 16:04:57 15.5 30 26.1
002EE994 2019-04-21 15:33:17 15.5 29 25.9
002EE994 2019-04-21 15:01:36 15.5 29 26
002EE994 2019-04-21 14:29:55 15.5 29 25.8
002EE994 2019-04-21 13:58:14 15.5 29 25.9
002EE994 2019-04-21 13:26:33 15.5 29 25.8
002EE994 2019-04-21 12:54:51 15.5 29 25.8
002EE994 2019-04-21 12:23:09 15.5 29 25.8
002EE994 2019-04-21 11:51:26 15.5 29 25.8
002EE994 2019-04-21 11:19:45 15.5 29 25.8
002EE994 2019-04-21 10:48:02 15.5 29 25.8
002EE994 2019-04-21 10:16:22 15.5 29 25.8
002EE994 2019-04-21 09:44:40 15.5 29 25.8
002EE994 2019-04-21 09:12:58 15.7 29 25.7
002EE994 2019-04-21 08:41:15 15.7 29 25.6
002EE994 2019-04-21 08:09:33 15.9 29 25.7
002EE994 2019-04-21 07:37:50 15.7 29 25.8
002EE994 2019-04-21 07:06:07 15.9 29 25.9
002EE994 2019-04-21 06:34:24 15.7 29 25.8
002EE994 2019-04-21 06:02:42 15.9 29 25.8
002EE994 2019-04-21 05:31:00 15.7 29 25.8
002EE994 2019-04-21 04:59:17 15.9 29 25.8
002EE994 2019-04-21 04:27:35 15.7 29 25.8
002EE994 2019-04-21 03:55:52 15.9 29 25.8
002EE994 2019-04-21 03:24:10 15.7 29 25.7
002EE994 2019-04-21 02:52:30 15.7 29 25.6
002EE994 2019-04-21 02:20:46 15.7 29 25.5
002EE994 2019-04-21 01:49:03 15.7 29 25.5
002EE994 2019-04-21 01:17:22 15.7 29 25.5
002EE994 2019-04-21 00:45:40 15.7 29 25.5
002EE994 2019-04-21 00:13:58 15.7 29 25.6
002EE994 2019-04-20 23:42:17 15.7 29 25.6
002EE994 2019-04-20 23:10:36 15.5 29 25.6
002EE994 2019-04-20 22:38:55 15.5 29 25.5
002EE994 2019-04-20 22:07:13 15.6 29 25.5
002EE994 2019-04-20 21:35:31 15.6 29 25.6
002EE994 2019-04-20 21:03:50 15.7 29 25.6
002EE994 2019-04-20 20:32:08 15.7 29 25.6
002EE994 2019-04-20 20:00:27 15.6 29 25.6
002EE994 2019-04-20 19:28:47 15.7 28 25.7
002EE994 2019-04-20 18:57:06 15.7 28 25.5
002EE994 2019-04-20 18:25:24 15.7 28 25.4
002EE994 2019-04-20 17:53:42 15.7 28 25.4
002EE994 2019-04-20 17:22:02 15.7 28 25.3
002EE994 2019-04-20 16:50:20 15.7 28 25.3
002EE994 2019-04-20 16:18:41 15.7 28 25.3
002EE994 2019-04-20 15:46:59 15.7 28 25.3
002EE994 2019-04-20 15:15:18 15.7 28 25.4
002EE994 2019-04-20 14:43:39 15.5 28 25.6
002EE994 2019-04-20 14:11:55 15.5 28 25.7
002EE994 2019-04-20 13:40:13 15.5 28 25.7
002EE994 2019-04-20 13:08:30 15.5 28 25.7
002EE994 2019-04-20 12:36:48 15.5 28 25.7
002EE994 2019-04-20 12:05:07 15.6 28 25.7
002EE994 2019-04-20 11:33:26 15.7 28 25.7
002EE994 2019-04-20 11:01:45 15.6 28 25.5
002EE994 2019-04-20 10:30:03 15.6 28 25.5
002EE994 2019-04-20 09:58:22 15.6 28 25.6
002EE994 2019-04-20 09:26:40 15.7 28 25.5
002EE994 2019-04-20 08:54:59 15.7 28 25.3
002EE994 2019-04-20 08:23:18 15.7 28 25.3
002EE994 2019-04-20 07:51:37 15.7 28 25.4
002EE994 2019-04-20 07:19:56 15.9 28 25.4
002EE994 2019-04-20 06:48:18 15.9 28 25.2
002EE994 2019-04-20 06:16:33 15.7 28 25.3
002EE994 2019-04-20 05:44:52 15.8 28 25.3
002EE994 2019-04-20 05:13:10 15.9 28 25.4
002EE994 2019-04-20 04:41:29 15.7 28 25.5
002EE994 2019-04-20 04:09:49 15.7 28 25.4
002EE994 2019-04-20 03:38:07 15.7 28 25.4
002EE994 2019-04-20 03:06:26 15.7 28 25.4
002EE994 2019-04-20 02:34:44 15.9 28 25.4
002EE994 2019-04-20 02:03:03 15.9 27 25.4
002EE994 2019-04-20 01:31:23 15.9 27 25.3
002EE994 2019-04-20 00:59:40 15.9 27 25.3
002EE994 2019-04-20 00:27:58 15.9 27 25.4
002EE994 2019-04-19 23:56:17 16.1 27 25.4
002EE994 2019-04-19 23:24:37 16.1 27 25.4
002EE994 2019-04-19 22:52:55 16.1 27 25.4
002EE994 2019-04-19 22:21:14 16.1 27 25.6
002EE994 2019-04-19 21:49:33 16.1 27 25.6
002EE994 2019-04-19 21:17:52 16.1 27 25.7
002EE994 2019-04-19 20:46:10 16.1 27 25.9
002EE994 2019-04-19 20:14:28 16.1 27 25.8
002EE994 2019-04-19 19:42:47 16.3 27 25.8
002EE994 2019-04-19 19:11:06 16.3 27 25.7
002EE994 2019-04-19 18:39:24 16.3 27 25.7
002EE994 2019-04-19 18:07:42 16.4 27 25.8
002EE994 2019-04-19 17:35:59 16.3 27 25.8
002EE994 2019-04-19 17:04:17 16.3 27 25.7
002EE994 2019-04-19 16:32:35 16.3 27 25.7
002EE994 2019-04-19 16:00:52 16.3 27 25.7
002EE994 2019-04-19 15:29:09 16.3 27 25.7
002EE994 2019-04-19 14:57:26 16.2 27 25.7
002EE994 2019-04-19 14:25:44 16.1 27 25.7
002EE994 2019-04-19 13:54:02 16.1 27 25.8
002EE994 2019-04-19 13:22:18 16.1 27 25.8
002EE994 2019-04-19 12:50:36 16.1 27 25.8
002EE994 2019-04-19 12:18:54 16 27 25.7
002EE994 2019-04-19 11:47:11 15.9 27 25.7
002EE994 2019-04-19 11:15:30 15.9 27 25.6
002EE994 2019-04-19 10:43:48 15.9 27 25.5
002EE994 2019-04-19 10:12:06 15.9 27 25.5
002EE994 2019-04-19 09:40:23 15.9 27 25.6
002EE994 2019-04-19 09:08:41 15.9 27 25.5
002EE994 2019-04-19 08:37:01 15.9 26 25.6
002EE994 2019-04-19 08:05:19 15.9 26 25.5
002EE994 2019-04-19 07:33:38 15.9 26 25.4
002EE994 2019-04-19 07:01:56 15.9 26 25.7
002EE994 2019-04-19 06:30:15 15.9 26 25.6
002EE994 2019-04-19 05:58:32 15.9 26 25.8
002EE994 2019-04-19 05:26:51 15.9 26 25.9
002EE994 2019-04-19 04:55:09 16 26 25.9
002EE994 2019-04-19 04:23:27 15.9 26 26
002EE994 2019-04-19 03:51:45 15.9 26 26.1
002EE994 2019-04-19 03:20:04 16.1 26 26.1
002EE994 2019-04-19 02:48:24 15.9 26 26.1
002EE994 2019-04-19 02:16:43 15.9 26 26.2
002EE994 2019-04-19 01:45:01 16.1 26 26.2
002EE994 2019-04-19 01:13:21 16.1 26 26.3
002EE994 2019-04-19 00:41:40 16.1 26 26.1
002EE994 2019-04-19 00:09:59 16.3 26 26.2
002EE994 2019-04-18 23:38:18 16.3 26 26.3
002EE994 2019-04-18 23:06:36 16.4 26 26.4
002EE994 2019-04-18 22:34:55 16.5 26 26.5
002EE994 2019-04-18 22:03:12 16.6 26 26.5
002EE994 2019-04-18 21:31:31 16.7 26 26.5
002EE994 2019-04-18 20:59:49 16.5 26 26.6
002EE994 2019-04-18 20:28:07 16.7 26 26.5
002EE994 2019-04-18 19:56:24 16.7 26 26.5
002EE994 2019-04-18 19:24:41 16.8 26 26.4
002EE994 2019-04-18 18:52:59 16.8 26 26.4
002EE994 2019-04-18 18:21:17 16.7 26 26.4
002EE994 2019-04-18 17:49:36 16.8 26 26.4
002EE994 2019-04-18 17:17:53 16.8 26 26.4
002EE994 2019-04-18 16:46:12 16.7 26 26.4
002EE994 2019-04-18 16:14:29 16.7 25 26.4
002EE994 2019-04-18 15:42:47 16.7 25 26.3
002EE994 2019-04-18 15:11:05 16.5 25 26.1
002EE994 2019-04-18 14:39:23 16.5 25 26.1
002EE994 2019-04-18 14:07:41 16.4 25 26.2
002EE994 2019-04-18 13:36:00 16.3 25 26.2
002EE994 2019-04-18 13:04:21 16.3 25 26.1
002EE994 2019-04-18 12:32:39 16.1 25 26.1
002EE994 2019-04-18 12:00:57 16.2 25 26.3
002EE994 2019-04-18 11:29:16 16.3 25 26.3
002EE994 2019-04-18 10:57:34 16.3 25 26.3
002EE994 2019-04-18 10:25:54 16.3 25 26.2
002EE994 2019-04-18 09:54:14 16.1 25 26.2
002EE994 2019-04-18 09:22:32 15.9 25 26.1
002EE994 2019-04-18 08:50:52 16.1 25 26.2
002EE994 2019-04-18 08:19:12 16.3 25 26.3
002EE994 2019-04-18 07:47:32 16.3 25 26.2
002EE994 2019-04-18 07:15:53 16.3 25 26.3
002EE994 2019-04-18 06:44:13 16.3 25 26.3
002EE994 2019-04-18 06:12:33 16.1 25 26.4
002EE994 2019-04-18 05:40:54 16.1 25 26.5
002EE994 2019-04-18 05:09:16 16.1 25 26.4
002EE994 2019-04-18 04:37:38 16.1 25 26.3
002EE994 2019-04-18 04:05:58 16 25 26.2
002EE994 2019-04-18 03:34:17 16.1 25 26.2
002EE994 2019-04-18 03:02:37 16 25 26.2
002EE994 2019-04-18 02:30:59 16 24 26.2
002EE994 2019-04-18 01:59:17 16.1 24 26.1
002EE994 2019-04-18 01:27:37 16.1 24 26.1
002EE994 2019-04-18 00:55:57 16.3 24 25.9
002EE994 2019-04-18 00:24:19 16.4 24 25.7
002EE994 2019-04-17 23:52:39 16.5 24 25.7
002EE994 2019-04-17 23:21:00 16.6 24 25.4
002EE994 2019-04-17 22:49:20 16.7 24 25.1
002EE994 2019-04-17 22:17:40 16.7 24 25
002EE994 2019-04-17 21:46:00 16.8 24 24.8
002EE994 2019-04-17 21:14:21 16.7 24 24.6
002EE994 2019-04-17 20:42:43 16.5 24 24.5
002EE994 2019-04-17 20:11:04 16.6 24 24.3
002EE994 2019-04-17 19:39:23 16.5 24 24.1
002EE994 2019-04-17 19:07:44 16.5 24 23.8
002EE994 2019-04-17 18:36:05 16.5 24 23.6
002EE994 2019-04-17 18:04:26 16.5 24 23.2
002EE994 2019-04-17 17:32:47 16.5 24 23.1
002EE994 2019-04-17 17:01:08 16.5 24 22.8
002EE994 2019-04-17 16:29:28 16.5 24 22.4
002EE994 2019-04-17 15:57:49 16.4 24 23.1
002EE994 2019-04-17 15:26:09 16.3 23 23
002EE994 2019-04-17 14:54:29 16.5 23 23
002EE994 2019-04-17 14:22:50 16.5 23 22.7
002EE994 2019-04-17 13:51:12 16.7 23 22.5
002EE994 2019-04-17 12:47:53 17 23 22.3
002EE994 2019-04-17 12:16:13 17 23 22.4
002EE994 2019-04-17 11:44:34 16.9 23 22.3
002EE994 2019-04-17 11:12:55 16.7 23 22.3
002EE994 2019-04-17 10:41:16 16.7 23 22.2
002EE994 2019-04-17 10:09:37 16.6 23 22
002EE994 2019-04-17 09:37:57 16.5 23 21.9
002EE994 2019-04-17 09:06:19 16.5 23 21.7
002EE994 2019-04-17 08:34:39 16.7 23 21.7
002EE994 2019-04-17 08:02:59 16.8 23 21.7
002EE994 2019-04-17 07:31:20 17 23 21.6
002EE994 2019-04-17 06:59:40 17.2 23 21.6
002EE994 2019-04-17 06:28:01 17.2 23 21.4
002EE994 2019-04-17 05:56:22 17.4 23 21.8
002EE994 2019-04-17 05:24:43 17.4 23 21.9
002EE994 2019-04-17 04:53:03 17.4 23 22.1
002EE994 2019-04-17 04:21:24 17.4 23 21.9
002EE994 2019-04-17 03:49:45 17.6 23 21.8
002EE994 2019-04-17 03:18:06 17.6 23 21.6
002EE994 2019-04-17 02:46:27 17.7 22 21.5
002EE994 2019-04-17 02:14:47 17.8 22 20
002EE994 2019-04-17 01:43:08 17.8 22 19.8
002EE994 2019-04-17 01:11:29 17.8 22 19.6
002EE994 2019-04-17 00:39:50 17.8 22 19.4
002EE994 2019-04-17 00:08:10 17.6 22 18.9
002EE994 2019-04-16 23:36:30 17.6 22 18.6
002EE994 2019-04-16 23:04:51 17.4 22 18.2
002EE994 2019-04-16 22:33:10 17.6 22 17.7
002EE994 2019-04-16 22:01:32 18 22 17.6
002EE994 2019-04-16 21:29:51 18.2 22 17.6
002EE994 2019-04-16 20:58:12 18.4 22 17.5
002EE994 2019-04-16 20:26:33 18.6 22 17.4
002EE994 2019-04-16 19:54:54 18.7 22 17.3
002EE994 2019-04-16 19:23:14 18.7 22 17.3
002EE994 2019-04-16 18:51:34 18.7 22 17.1
002EE994 2019-04-16 18:19:55 18.7 22 16.9
002EE994 2019-04-16 17:48:16 18.7 22 16.6
002EE994 2019-04-16 16:44:59 18.9 21 16.6
002EE994 2019-04-16 16:13:20 19.1 21 14.8
002EE994 2019-04-16 15:10:03 19.5 21 13.9
002EE994 2019-04-16 14:38:24 20.2 21 11.6
002EE994 2019-04-16 13:35:06 21.2 21 11.6
002EE994 2019-04-16 13:03:28 21.2 21 11.3
002EE994 2019-04-16 12:00:11 21.2 21 11
002EE994 2019-04-16 10:56:53 21 21 10.5
002EE994 2019-04-16 10:25:13 21.1 21 10.5
002EE994 2019-04-16 09:53:35 21.1 21 9.9
002EE994 2019-04-16 09:21:58 21 21 9.8
002EE994 2019-04-16 08:50:20 21.1 21 10.1
002EE994 2019-04-16 08:18:39 21 21 10.2
002EE994 2019-04-16 07:47:00 21 21 10.2
002EE994 2019-04-16 07:15:23 21 21 10.5
002EE994 2019-04-16 06:43:43 21 21 10.6
002EE994 2019-04-16 06:12:01 21 21 10.6
002EE994 2019-04-16 05:40:21 21 21 10.6
002EE994 2019-04-16 05:08:41 21 21 11.4
002EE994 2019-04-16 04:37:01 21 21 11.4
002EE994 2019-04-16 04:05:24 21.1 21 11.7
002EE994 2019-04-16 03:33:41 21.1 21 12.9
002EE994 2019-04-16 03:02:02 21.2 21 12.9
002EE994 2019-04-16 02:30:24 21.2 21 13.3
002EE994 2019-04-16 01:58:47 21.2 21 13.7
002EE994 2019-04-16 01:27:09 21.2 21 13.8
002EE994 2019-04-16 00:55:32 21.2 21 14.8
002EE994 2019-04-16 00:23:52 21.2 21 16.4
002EE994 2019-04-15 23:52:13 21.2 20 16.9
002EE994 2019-04-15 23:20:35 21.2 20 18
002EE994 2019-04-15 22:48:58 21.2 20 19.3
002EE994 2019-04-15 22:17:18 21.2 20 21
002EE994 2019-04-15 21:45:41 21.2 20 21.9
002EE994 2019-04-15 21:14:02 21.2 20 22.2
002EE994 2019-04-15 20:42:25 21.2 20 22.6
002EE994 2019-04-15 20:10:46 21.2 20 23
002EE994 2019-04-15 19:39:08 21.2 20 23.4
002EE994 2019-04-15 19:07:26 21.2 20 23.6
002EE994 2019-04-15 18:35:46 21.2 20 24
002EE994 2019-04-15 18:04:07 21.2 20 24.1
002EE994 2019-04-15 17:32:28 21.3 20 24.4
002EE994 2019-04-15 17:00:50 21.4 20 24.5
002EE994 2019-04-15 16:29:08 21.4 20 24.7
002EE994 2019-04-15 15:57:29 21.4 20 24.9
002EE994 2019-04-15 15:25:50 21.5 20 25.2
002EE994 2019-04-15 14:54:13 21.7 20 25.4
002EE994 2019-04-15 14:22:32 21.7 19 25.8
002EE994 2019-04-15 13:50:52 21.8 19 26.2
002EE994 2019-04-15 13:19:15 22 19 26.3
002EE994 2019-04-15 12:47:36 22.3 19 26.3
002EE994 2019-04-15 12:15:55 22.3 19 26.6
002EE994 2019-04-15 11:44:15 22.2 17 26.7
002EE994 2019-04-15 11:12:36 22.1 17 26.7
002EE994 2019-04-15 10:40:56 22.1 17 26.8
002EE994 2019-04-15 10:09:17 22.1 17 26.8
002EE994 2019-04-15 09:37:38 22.1 18 26.8
002EE994 2019-04-15 09:05:59 21.9 18 26.6
002EE994 2019-04-15 08:34:20 21.9 18 26.4
002EE994 2019-04-15 08:02:41 21.9 18 26.4
002EE994 2019-04-15 07:31:02 21.8 18 26.3
002EE994 2019-04-15 06:59:23 21.7 18 26.3
002EE994 2019-04-15 06:27:43 21.8 18 26.2
002EE994 2019-04-15 05:56:04 21.8 18 26.5
002EE994 2019-04-15 05:24:24 21.7 18 26.4
002EE994 2019-04-15 04:52:43 21.8 18 26.5
002EE994 2019-04-15 04:21:05 21.7 18 26.5
002EE994 2019-04-15 03:49:25 21.8 18 26.5
002EE994 2019-04-15 03:17:46 21.8 18 26.6
002EE994 2019-04-15 02:46:09 21.8 18 26.5
002EE994 2019-04-15 02:14:30 21.7 18 26.4
002EE994 2019-04-15 01:42:51 21.7 19 26.4
002EE994 2019-04-15 01:11:11 21.7 19 26.3
002EE994 2019-04-15 00:39:31 21.7 19 26
002EE994 2019-04-15 00:07:51 21.7 19 26.1
002EE994 2019-04-14 23:36:10 21.8 19 26.1
002EE994 2019-04-14 23:04:30 21.8 19 26.1
002EE994 2019-04-14 22:32:50 21.9 19 26
002EE994 2019-04-14 22:01:11 21.9 19 26
002EE994 2019-04-14 21:29:32 21.9 19 26
002EE994 2019-04-14 20:57:52 21.9 19 26.1
002EE994 2019-04-14 20:26:14 21.9 19 26
002EE994 2019-04-14 19:54:34 21.9 19 26.1
002EE994 2019-04-14 19:22:55 21.9 19 26.2
002EE994 2019-04-14 18:51:16 21.9 19 26.3
002EE994 2019-04-14 18:19:37 21.9 19 26.3
002EE994 2019-04-14 17:47:58 21.9 19 26.4
002EE994 2019-04-14 17:16:19 21.9 19 26.4
002EE994 2019-04-14 16:44:40 21.9 19 26.2
002EE994 2019-04-14 16:13:00 21.9 19 26.2
002EE994 2019-04-14 15:41:20 21.9 19 26.2
002EE994 2019-04-14 15:09:41 21.9 19 26.3
002EE994 2019-04-14 14:38:02 21.9 19 26.3
002EE994 2019-04-14 14:06:24 21.9 19 26.5
002EE994 2019-04-14 13:34:44 21.9 19 26.5
002EE994 2019-04-14 13:03:05 21.9 19 26.5
002EE994 2019-04-14 12:31:26 21.9 19 26.7
002EE994 2019-04-14 11:59:47 21.9 20 26.7
002EE994 2019-04-14 11:28:08 21.9 20 26.7
002EE994 2019-04-14 10:56:28 21.9 20 26.7
002EE994 2019-04-14 10:24:48 21.9 19 26.8
002EE994 2019-04-14 09:53:09 21.9 19 26.9
002EE994 2019-04-14 09:21:29 21.9 19 27
002EE994 2019-04-14 08:49:50 21.9 19 27.1
002EE994 2019-04-14 08:18:09 21.9 19 27.1
002EE994 2019-04-14 07:46:29 21.9 19 27.1
002EE994 2019-04-14 07:14:49 21.9 19 27.2
002EE994 2019-04-14 06:43:09 21.9 19 27.1
002EE994 2019-04-14 06:11:29 21.8 19 26.9
002EE994 2019-04-14 05:39:48 21.9 19 26.9
002EE994 2019-04-14 05:08:09 21.8 19 26.9
002EE994 2019-04-14 04:36:30 21.9 19 27.1
002EE994 2019-04-14 04:04:50 21.9 19 27.1
002EE994 2019-04-14 03:33:10 21.9 19 27.2
002EE994 2019-04-14 03:01:30 21.9 19 27.2
002EE994 2019-04-14 02:29:49 21.9 19 27.1
002EE994 2019-04-14 01:58:10 21.9 19 27
002EE994 2019-04-14 01:26:30 21.9 19 27.1
002EE994 2019-04-14 00:54:49 21.9 19 26.9
002EE994 2019-04-14 00:23:08 21.9 19 26.8
002EE994 2019-04-13 23:51:26 21.9 19 26.9
002EE994 2019-04-13 23:19:46 21.9 19 26.8
002EE994 2019-04-13 22:48:05 22 19 26.7
002EE994 2019-04-13 22:16:25 22 19 26.7
002EE994 2019-04-13 21:44:45 22 19 26.7
002EE994 2019-04-13 21:13:04 22.1 18 26.7
002EE994 2019-04-13 20:41:25 22.1 18 26.6
002EE994 2019-04-13 20:09:44 22.1 18 26.6
002EE994 2019-04-13 19:38:02 22.1 19 26.6
002EE994 2019-04-13 19:06:22 22.1 19 26.7
002EE994 2019-04-13 18:34:43 22.1 19 26.6
002EE994 2019-04-13 18:03:03 22.1 19 26.5
002EE994 2019-04-13 17:31:25 22.2 19 26.5
002EE994 2019-04-13 16:59:44 22.1 19 26.8
002EE994 2019-04-13 16:28:04 22.2 19 26.8
002EE994 2019-04-13 15:56:23 22.2 19 26.8
002EE994 2019-04-13 15:24:43 22.3 19 26.6
002EE994 2019-04-13 14:53:03 22.3 19 26.6
002EE994 2019-04-13 14:21:22 22.3 19 26.4
002EE994 2019-04-13 13:49:40 22.3 19 26.3
002EE994 2019-04-13 13:17:59 22.3 19 26.3
002EE994 2019-04-13 12:46:18 22.3 19 26.3
002EE994 2019-04-13 12:14:38 22.3 19 26.2
002EE994 2019-04-13 11:42:57 22.3 19 26.3
002EE994 2019-04-13 11:11:18 22.3 19 26.3
002EE994 2019-04-13 10:39:39 22.3 19 26.3
002EE994 2019-04-13 10:08:00 22.3 19 26.2
002EE994 2019-04-13 09:36:21 22.3 19 26.3
002EE994 2019-04-13 09:04:42 22.3 19 26.2
002EE994 2019-04-13 08:33:02 22.3 19 26.3
002EE994 2019-04-13 08:01:23 22.3 18 26.4
002EE994 2019-04-13 07:29:43 22.3 18 26.3
002EE994 2019-04-13 06:58:03 22.3 18 26.4
002EE994 2019-04-13 06:26:23 22.3 18 26.2
002EE994 2019-04-13 05:54:43 22.3 18 26.1
002EE994 2019-04-13 05:23:04 22.3 18 26.2
002EE994 2019-04-13 04:51:24 22.3 18 26.1
002EE994 2019-04-13 04:19:44 22.3 18 26.3
002EE994 2019-04-13 03:48:06 22.3 18 26.4
002EE994 2019-04-13 03:16:26 22.3 18 26.4
002EE994 2019-04-13 02:44:45 22.3 19 26.3
002EE994 2019-04-13 02:13:04 22.3 19 26.2
002EE994 2019-04-13 01:41:22 22.4 19 26.2
002EE994 2019-04-13 01:09:40 22.5 19 26.3
002EE994 2019-04-13 00:37:58 22.5 19 26.4
002EE994 2019-04-13 00:06:16 22.5 19 26.5
002EE994 2019-04-12 23:34:33 22.5 19 26.6
002EE994 2019-04-12 23:02:51 22.5 19 26.6
002EE994 2019-04-12 22:31:10 22.6 19 26.6
002EE994 2019-04-12 21:59:28 22.7 20 26.7
002EE994 2019-04-12 21:27:45 22.7 20 26.8
002EE994 2019-04-12 20:56:03 22.7 20 26.8
002EE994 2019-04-12 20:24:21 22.7 20 26.8
002EE994 2019-04-12 19:52:40 22.7 19 26.9
002EE994 2019-04-12 19:20:59 22.7 19 26.8
002EE994 2019-04-12 18:49:18 22.7 18 26.6
002EE994 2019-04-12 18:17:35 22.9 17 26.8
002EE994 2019-04-12 17:45:54 22.9 17 26.4
002EE994 2019-04-12 17:14:11 22.9 18 26.7
002EE994 2019-04-12 16:42:28 22.9 18 26.9
002EE994 2019-04-12 16:10:46 22.9 19 27
002EE994 2019-04-12 15:39:03 22.7 19 27.3
002EE994 2019-04-12 15:07:21 22.7 19 26.3
002EE994 2019-04-12 14:35:37 22.5 19 23.6
002EE994 2019-04-12 14:03:55 22.1 20 24.7
002EE994 2019-04-12 13:32:12 21.4 21 24.7
002EE994 2019-04-12 13:00:30 20.6 27 0